����������;��������(kWh)
2015-11-30 00:00;69,65
2015-11-30 00:15;73,55
2015-11-30 00:30;71,65
2015-11-30 00:45;71,15
2015-11-30 01:00;71,3
2015-11-30 01:15;71,25
2015-11-30 01:30;69,15
2015-11-30 01:45;69,55
2015-11-30 02:00;71,3
2015-11-30 02:15;69,95
2015-11-30 02:30;69
2015-11-30 02:45;68,1
2015-11-30 03:00;70,9
2015-11-30 03:15;69
2015-11-30 03:30;67,95
2015-11-30 03:45;68,95
2015-11-30 04:00;81,45
2015-11-30 04:15;76,8
2015-11-30 04:30;78,35
2015-11-30 04:45;83,05
2015-11-30 05:00;81,2
2015-11-30 05:15;77,2
2015-11-30 05:30;75,8
2015-11-30 05:45;67,65
2015-11-30 06:00;72,1
2015-11-30 06:15;73,75
2015-11-30 06:30;77,8
2015-11-30 06:45;77,8
2015-11-30 07:00;78,1
2015-11-30 07:15;81,55
2015-11-30 07:30;82,25
2015-11-30 07:45;89,7
2015-11-30 08:00;91,8
2015-11-30 08:15;98,65
2015-11-30 08:30;105,95
2015-11-30 08:45;108,4
2015-11-30 09:00;117,9
2015-11-30 09:15;130,55
2015-11-30 09:30;138,85
2015-11-30 09:45;145,1
2015-11-30 10:00;146,75
2015-11-30 10:15;152,05
2015-11-30 10:30;158,1
2015-11-30 10:45;172,2
2015-11-30 11:00;164,8
2015-11-30 11:15;186,9
2015-11-30 11:30;176,5
2015-11-30 11:45;172,4
2015-11-30 12:00;172,4
2015-11-30 12:15;182,25
2015-11-30 12:30;177,55
2015-11-30 12:45;185,75
2015-11-30 13:00;186,65
2015-11-30 13:15;181,7
2015-11-30 13:30;177,1
2015-11-30 13:45;175,6
2015-11-30 14:00;176,3
2015-11-30 14:15;176,3
2015-11-30 14:30;175,35
2015-11-30 14:45;180,3
2015-11-30 15:00;171,05
2015-11-30 15:15;168,4
2015-11-30 15:30;165,95
2015-11-30 15:45;159,1
2015-11-30 16:00;150,15
2015-11-30 16:15;140,25
2015-11-30 16:30;140,1
2015-11-30 16:45;140,35
2015-11-30 17:00;143,3
2015-11-30 17:15;141,6
2015-11-30 17:30;136,6
2015-11-30 17:45;141,7
2015-11-30 18:00;141,15
2015-11-30 18:15;138,15
2015-11-30 18:30;132,7
2015-11-30 18:45;131,8
2015-11-30 19:00;125,15
2015-11-30 19:15;118,7
2015-11-30 19:30;114,35
2015-11-30 19:45;110,95
2015-11-30 20:00;109
2015-11-30 20:15;105,25
2015-11-30 20:30;104,3
2015-11-30 20:45;100,65
2015-11-30 21:00;94,3
2015-11-30 21:15;91,2
2015-11-30 21:30;90,35
2015-11-30 21:45;87,3
2015-11-30 22:00;86,05
2015-11-30 22:15;88
2015-11-30 22:30;85,7
2015-11-30 22:45;83,05
2015-11-30 23:00;82,05
2015-11-30 23:15;82,5
2015-11-30 23:30;78,65
2015-11-30 23:45;74,1
2015-12-01 00:00;72,95
2015-12-01 00:15;76,25
2015-12-01 00:30;76,6
2015-12-01 00:45;74,9
2015-12-01 01:00;73,15
2015-12-01 01:15;75,4
2015-12-01 01:30;75,05
2015-12-01 01:45;73,9
2015-12-01 02:00;73,6
2015-12-01 02:15;72,75
2015-12-01 02:30;73,7
2015-12-01 02:45;73,85
2015-12-01 03:00;72,9
2015-12-01 03:15;72,25
2015-12-01 03:30;72,3
2015-12-01 03:45;73,1
2015-12-01 04:00;75,9
2015-12-01 04:15;72,85
2015-12-01 04:30;71,7
2015-12-01 04:45;74,45
2015-12-01 05:00;74,25
2015-12-01 05:15;70,25
2015-12-01 05:30;71,8
2015-12-01 05:45;67,05
2015-12-01 06:00;70,6
2015-12-01 06:15;75,6
2015-12-01 06:30;80,95
2015-12-01 06:45;81,65
2015-12-01 07:00;83
2015-12-01 07:15;79,45
2015-12-01 07:30;81,5
2015-12-01 07:45;85,05
2015-12-01 08:00;90,05
2015-12-01 08:15;96,55
2015-12-01 08:30;94,75
2015-12-01 08:45;100,65
2015-12-01 09:00;116,55
2015-12-01 09:15;133,3
2015-12-01 09:30;136,65
2015-12-01 09:45;142,05
2015-12-01 10:00;138,65
2015-12-01 10:15;144,9
2015-12-01 10:30;153,05
2015-12-01 10:45;170,55
2015-12-01 11:00;179,15
2015-12-01 11:15;200,75
2015-12-01 11:30;207,5
2015-12-01 11:45;198,85
2015-12-01 12:00;187,65
2015-12-01 12:15;179,75
2015-12-01 12:30;172,65
2015-12-01 12:45;173,3
2015-12-01 13:00;177,25
2015-12-01 13:15;167,3
2015-12-01 13:30;169,85
2015-12-01 13:45;171,9
2015-12-01 14:00;163,6
2015-12-01 14:15;167,3
2015-12-01 14:30;169,1
2015-12-01 14:45;163,6
2015-12-01 15:00;141,55
2015-12-01 15:15;124,85
2015-12-01 15:30;152,25
2015-12-01 15:45;143,6
2015-12-01 16:00;137
2015-12-01 16:15;133,85
2015-12-01 16:30;131,6
2015-12-01 16:45;133,55
2015-12-01 17:00;131,8
2015-12-01 17:15;138,75
2015-12-01 17:30;146,45
2015-12-01 17:45;145,65
2015-12-01 18:00;143,6
2015-12-01 18:15;142,95
2015-12-01 18:30;136,1
2015-12-01 18:45;133,1
2015-12-01 19:00;131,3
2015-12-01 19:15;124,25
2015-12-01 19:30;121,4
2015-12-01 19:45;119,65
2015-12-01 20:00;121,75
2015-12-01 20:15;121,45
2015-12-01 20:30;123,15
2015-12-01 20:45;114,6
2015-12-01 21:00;111,55
2015-12-01 21:15;107,75
2015-12-01 21:30;109,1
2015-12-01 21:45;108,45
2015-12-01 22:00;106,95
2015-12-01 22:15;104,4
2015-12-01 22:30;102,9
2015-12-01 22:45;101,2
2015-12-01 23:00;93,15
2015-12-01 23:15;89,65
2015-12-01 23:30;88,4
2015-12-01 23:45;89
2015-12-02 00:00;86,5
2015-12-02 00:15;87,1
2015-12-02 00:30;85,55
2015-12-02 00:45;86,6
2015-12-02 01:00;85,75
2015-12-02 01:15;86
2015-12-02 01:30;85,2
2015-12-02 01:45;84,15
2015-12-02 02:00;83,45
2015-12-02 02:15;82,8
2015-12-02 02:30;83,7
2015-12-02 02:45;83,35
2015-12-02 03:00;82,95
2015-12-02 03:15;82,35
2015-12-02 03:30;83,05
2015-12-02 03:45;81,85
2015-12-02 04:00;83,65
2015-12-02 04:15;81,15
2015-12-02 04:30;82,25
2015-12-02 04:45;86,05
2015-12-02 05:00;96,6
2015-12-02 05:15;95,45
2015-12-02 05:30;89,9
2015-12-02 05:45;84,55
2015-12-02 06:00;87,55
2015-12-02 06:15;91,9
2015-12-02 06:30;92,35
2015-12-02 06:45;93,25
2015-12-02 07:00;88,55
2015-12-02 07:15;115,05
2015-12-02 07:30;130,95
2015-12-02 07:45;122,1
2015-12-02 08:00;115,25
2015-12-02 08:15;123,1
2015-12-02 08:30;133,75
2015-12-02 08:45;137,65
2015-12-02 09:00;134,25
2015-12-02 09:15;136,85
2015-12-02 09:30;142,65
2015-12-02 09:45;151,6
2015-12-02 10:00;145,05
2015-12-02 10:15;155,5
2015-12-02 10:30;157,05
2015-12-02 10:45;170,95
2015-12-02 11:00;180,45
2015-12-02 11:15;174,05
2015-12-02 11:30;164,95
2015-12-02 11:45;171,2
2015-12-02 12:00;159,8
2015-12-02 12:15;168,05
2015-12-02 12:30;165,1
2015-12-02 12:45;163,25
2015-12-02 13:00;160,35
2015-12-02 13:15;162,35
2015-12-02 13:30;154,45
2015-12-02 13:45;162,8
2015-12-02 14:00;158,35
2015-12-02 14:15;160,75
2015-12-02 14:30;156,4
2015-12-02 14:45;160,7
2015-12-02 15:00;156,75
2015-12-02 15:15;149,45
2015-12-02 15:30;143,1
2015-12-02 15:45;151,9
2015-12-02 16:00;146,6
2015-12-02 16:15;140,8
2015-12-02 16:30;139,4
2015-12-02 16:45;145,55
2015-12-02 17:00;140,75
2015-12-02 17:15;145,8
2015-12-02 17:30;154,65
2015-12-02 17:45;170,6
2015-12-02 18:00;157,25
2015-12-02 18:15;148,2
2015-12-02 18:30;145,65
2015-12-02 18:45;147,5
2015-12-02 19:00;129,05
2015-12-02 19:15;117,2
2015-12-02 19:30;119,15
2015-12-02 19:45;118,95
2015-12-02 20:00;115,5
2015-12-02 20:15;106
2015-12-02 20:30;107,6
2015-12-02 20:45;104,6
2015-12-02 21:00;98,4
2015-12-02 21:15;97,4
2015-12-02 21:30;94,75
2015-12-02 21:45;90,7
2015-12-02 22:00;87,75
2015-12-02 22:15;90,65
2015-12-02 22:30;87,25
2015-12-02 22:45;86
2015-12-02 23:00;85,4
2015-12-02 23:15;85,65
2015-12-02 23:30;82,15
2015-12-02 23:45;75,7
2015-12-03 00:00;75,45
2015-12-03 00:15;76,75
2015-12-03 00:30;76,15
2015-12-03 00:45;74,5
2015-12-03 01:00;76,05
2015-12-03 01:15;78,85
2015-12-03 01:30;79,3
2015-12-03 01:45;78,35
2015-12-03 02:00;80,15
2015-12-03 02:15;75,1
2015-12-03 02:30;72,35
2015-12-03 02:45;71,25
2015-12-03 03:00;72,25
2015-12-03 03:15;71,2
2015-12-03 03:30;71,55
2015-12-03 03:45;71,95
2015-12-03 04:00;72,55
2015-12-03 04:15;69,9
2015-12-03 04:30;69,8
2015-12-03 04:45;73,75
2015-12-03 05:00;73,6
2015-12-03 05:15;70,75
2015-12-03 05:30;73,45
2015-12-03 05:45;68,55
2015-12-03 06:00;67,95
2015-12-03 06:15;74,35
2015-12-03 06:30;82,85
2015-12-03 06:45;85,3
2015-12-03 07:00;80,4
2015-12-03 07:15;95,25
2015-12-03 07:30;106,7
2015-12-03 07:45;99
2015-12-03 08:00;92,15
2015-12-03 08:15;97,6
2015-12-03 08:30;99,25
2015-12-03 08:45;103,4
2015-12-03 09:00;107,5
2015-12-03 09:15;120,15
2015-12-03 09:30;121,75
2015-12-03 09:45;132,1
2015-12-03 10:00;132,45
2015-12-03 10:15;143,5
2015-12-03 10:30;150,4
2015-12-03 10:45;162,2
2015-12-03 11:00;164,3
2015-12-03 11:15;168,7
2015-12-03 11:30;165,45
2015-12-03 11:45;163,45
2015-12-03 12:00;168,75
2015-12-03 12:15;165,4
2015-12-03 12:30;173,8
2015-12-03 12:45;178,9
2015-12-03 13:00;173,85
2015-12-03 13:15;173,9
2015-12-03 13:30;168,1
2015-12-03 13:45;169,1
2015-12-03 14:00;160,6
2015-12-03 14:15;161,5
2015-12-03 14:30;161,3
2015-12-03 14:45;169,1
2015-12-03 15:00;158,45
2015-12-03 15:15;159,55
2015-12-03 15:30;162,4
2015-12-03 15:45;156
2015-12-03 16:00;149,6
2015-12-03 16:15;149,7
2015-12-03 16:30;144,7
2015-12-03 16:45;146,15
2015-12-03 17:00;148,25
2015-12-03 17:15;137,35
2015-12-03 17:30;141,6
2015-12-03 17:45;150,2
2015-12-03 18:00;140,25
2015-12-03 18:15;138,6
2015-12-03 18:30;134,1
2015-12-03 18:45;130,8
2015-12-03 19:00;130,4
2015-12-03 19:15;123,25
2015-12-03 19:30;118,55
2015-12-03 19:45;113,8
2015-12-03 20:00;114,15
2015-12-03 20:15;110,75
2015-12-03 20:30;106,8
2015-12-03 20:45;104,3
2015-12-03 21:00;109,2
2015-12-03 21:15;105,3
2015-12-03 21:30;105,2
2015-12-03 21:45;100,95
2015-12-03 22:00;99,85
2015-12-03 22:15;96,45
2015-12-03 22:30;89,85
2015-12-03 22:45;87,45
2015-12-03 23:00;84,35
2015-12-03 23:15;81,2
2015-12-03 23:30;78,9
2015-12-03 23:45;79,05
2015-12-04 00:00;79,6
2015-12-04 00:15;80,4
2015-12-04 00:30;79,05
2015-12-04 00:45;78,5
2015-12-04 01:00;77,85
2015-12-04 01:15;76,25
2015-12-04 01:30;74,15
2015-12-04 01:45;73,95
2015-12-04 02:00;74
2015-12-04 02:15;74,7
2015-12-04 02:30;73,7
2015-12-04 02:45;73,6
2015-12-04 03:00;73,55
2015-12-04 03:15;73,3
2015-12-04 03:30;73,9
2015-12-04 03:45;72,75
2015-12-04 04:00;73,9
2015-12-04 04:15;72,4
2015-12-04 04:30;73
2015-12-04 04:45;74,5
2015-12-04 05:00;75,5
2015-12-04 05:15;71,9
2015-12-04 05:30;74,35
2015-12-04 05:45;70,15
2015-12-04 06:00;73,65
2015-12-04 06:15;75,35
2015-12-04 06:30;78,45
2015-12-04 06:45;76,95
2015-12-04 07:00;81,4
2015-12-04 07:15;109,8
2015-12-04 07:30;122,1
2015-12-04 07:45;115,2
2015-12-04 08:00;99
2015-12-04 08:15;106,1
2015-12-04 08:30;111,35
2015-12-04 08:45;115,95
2015-12-04 09:00;123,15
2015-12-04 09:15;136,35
2015-12-04 09:30;142,7
2015-12-04 09:45;143,2
2015-12-04 10:00;153,7
2015-12-04 10:15;148,6
2015-12-04 10:30;159,15
2015-12-04 10:45;115,75
2015-12-04 11:00;157,3
2015-12-04 11:15;150,9
2015-12-04 11:30;154
2015-12-04 11:45;152
2015-12-04 12:00;158,75
2015-12-04 12:15;157,85
2015-12-04 12:30;155,85
2015-12-04 12:45;159,7
2015-12-04 13:00;156,55
2015-12-04 13:15;161,95
2015-12-04 13:30;163,95
2015-12-04 13:45;163,2
2015-12-04 14:00;166,3
2015-12-04 14:15;169,3
2015-12-04 14:30;166,5
2015-12-04 14:45;162,25
2015-12-04 15:00;156,05
2015-12-04 15:15;154,15
2015-12-04 15:30;143,85
2015-12-04 15:45;140,05
2015-12-04 16:00;140,95
2015-12-04 16:15;139,1
2015-12-04 16:30;132,9
2015-12-04 16:45;135,1
2015-12-04 17:00;133,55
2015-12-04 17:15;137,15
2015-12-04 17:30;149,9
2015-12-04 17:45;154,35
2015-12-04 18:00;149,35
2015-12-04 18:15;140,55
2015-12-04 18:30;138,85
2015-12-04 18:45;127,95
2015-12-04 19:00;122,9
2015-12-04 19:15;116,65
2015-12-04 19:30;111,95
2015-12-04 19:45;109,65
2015-12-04 20:00;108,1
2015-12-04 20:15;110,15
2015-12-04 20:30;111,15
2015-12-04 20:45;106,9
2015-12-04 21:00;98,75
2015-12-04 21:15;94,8
2015-12-04 21:30;96,25
2015-12-04 21:45;96,8
2015-12-04 22:00;95,8
2015-12-04 22:15;93,55
2015-12-04 22:30;92,65
2015-12-04 22:45;91
2015-12-04 23:00;90,4
2015-12-04 23:15;87,75
2015-12-04 23:30;84,65
2015-12-04 23:45;76,8
2015-12-05 00:00;77,9
2015-12-05 00:15;76,2
2015-12-05 00:30;75,9
2015-12-05 00:45;74,4
2015-12-05 01:00;75,6
2015-12-05 01:15;73,1
2015-12-05 01:30;71,65
2015-12-05 01:45;69,85
2015-12-05 02:00;69,3
2015-12-05 02:15;70,15
2015-12-05 02:30;71,15
2015-12-05 02:45;69,75
2015-12-05 03:00;69,55
2015-12-05 03:15;69
2015-12-05 03:30;70,9
2015-12-05 03:45;69,35
2015-12-05 04:00;70,65
2015-12-05 04:15;69,3
2015-12-05 04:30;70,7
2015-12-05 04:45;72,2
2015-12-05 05:00;71,3
2015-12-05 05:15;68,7
2015-12-05 05:30;71,3
2015-12-05 05:45;66,3
2015-12-05 06:00;68,8
2015-12-05 06:15;71,4
2015-12-05 06:30;73,5
2015-12-05 06:45;75,4
2015-12-05 07:00;75,7
2015-12-05 07:15;73,55
2015-12-05 07:30;69,3
2015-12-05 07:45;71,25
2015-12-05 08:00;71,25
2015-12-05 08:15;67,85
2015-12-05 08:30;66,1
2015-12-05 08:45;65,85
2015-12-05 09:00;68,15
2015-12-05 09:15;71,5
2015-12-05 09:30;70,75
2015-12-05 09:45;74,15
2015-12-05 10:00;78,25
2015-12-05 10:15;85,55
2015-12-05 10:30;87,5
2015-12-05 10:45;94,1
2015-12-05 11:00;92,65
2015-12-05 11:15;80,2
2015-12-05 11:30;81,85
2015-12-05 11:45;82,7
2015-12-05 12:00;84,95
2015-12-05 12:15;76
2015-12-05 12:30;76,4
2015-12-05 12:45;76,85
2015-12-05 13:00;77,6
2015-12-05 13:15;76,6
2015-12-05 13:30;75,5
2015-12-05 13:45;77,15
2015-12-05 14:00;78,2
2015-12-05 14:15;80,45
2015-12-05 14:30;81,7
2015-12-05 14:45;81,15
2015-12-05 15:00;79,6
2015-12-05 15:15;76,05
2015-12-05 15:30;74,6
2015-12-05 15:45;73,2
2015-12-05 16:00;74,35
2015-12-05 16:15;74,85
2015-12-05 16:30;78,25
2015-12-05 16:45;73,8
2015-12-05 17:00;75,05
2015-12-05 17:15;77,6
2015-12-05 17:30;83,4
2015-12-05 17:45;89,6
2015-12-05 18:00;89,2
2015-12-05 18:15;87
2015-12-05 18:30;86
2015-12-05 18:45;87,15
2015-12-05 19:00;90,75
2015-12-05 19:15;87,95
2015-12-05 19:30;89,2
2015-12-05 19:45;88,9
2015-12-05 20:00;91,4
2015-12-05 20:15;89,75
2015-12-05 20:30;91,15
2015-12-05 20:45;93,35
2015-12-05 21:00;95,4
2015-12-05 21:15;94,3
2015-12-05 21:30;91,9
2015-12-05 21:45;87,55
2015-12-05 22:00;84,1
2015-12-05 22:15;84,35
2015-12-05 22:30;82,9
2015-12-05 22:45;79,55
2015-12-05 23:00;77,4
2015-12-05 23:15;76,25
2015-12-05 23:30;74,8
2015-12-05 23:45;73,05
2015-12-06 00:00;71,45
2015-12-06 00:15;70,9
2015-12-06 00:30;71,25
2015-12-06 00:45;70,6
2015-12-06 01:00;70,6
2015-12-06 01:15;69,7
2015-12-06 01:30;69,55
2015-12-06 01:45;69,6
2015-12-06 02:00;69,65
2015-12-06 02:15;68,85
2015-12-06 02:30;68,6
2015-12-06 02:45;68,7
2015-12-06 03:00;69,85
2015-12-06 03:15;68,7
2015-12-06 03:30;69,3
2015-12-06 03:45;67,9
2015-12-06 04:00;72,5
2015-12-06 04:15;71,45
2015-12-06 04:30;71,45
2015-12-06 04:45;72,35
2015-12-06 05:00;73,9
2015-12-06 05:15;69,95
2015-12-06 05:30;71,75
2015-12-06 05:45;67,4
2015-12-06 06:00;70,45
2015-12-06 06:15;74,25
2015-12-06 06:30;74,1
2015-12-06 06:45;76,9
2015-12-06 07:00;76,6
2015-12-06 07:15;74,4
2015-12-06 07:30;72,3
2015-12-06 07:45;74,3
2015-12-06 08:00;72,8
2015-12-06 08:15;70,1
2015-12-06 08:30;70,5
2015-12-06 08:45;65,5
2015-12-06 09:00;64
2015-12-06 09:15;61,7
2015-12-06 09:30;62,6
2015-12-06 09:45;61,9
2015-12-06 10:00;61,75
2015-12-06 10:15;66,65
2015-12-06 10:30;74,05
2015-12-06 10:45;77,05
2015-12-06 11:00;79,2
2015-12-06 11:15;71,1
2015-12-06 11:30;70,75
2015-12-06 11:45;65,7
2015-12-06 12:00;67,35
2015-12-06 12:15;66,25
2015-12-06 12:30;67
2015-12-06 12:45;70,8
2015-12-06 13:00;69,1
2015-12-06 13:15;69,95
2015-12-06 13:30;67,7
2015-12-06 13:45;72,4
2015-12-06 14:00;74,15
2015-12-06 14:15;74,15
2015-12-06 14:30;73
2015-12-06 14:45;72,75
2015-12-06 15:00;77,8
2015-12-06 15:15;73,05
2015-12-06 15:30;70,4
2015-12-06 15:45;68,95
2015-12-06 16:00;71,65
2015-12-06 16:15;70,65
2015-12-06 16:30;69,3
2015-12-06 16:45;70,4
2015-12-06 17:00;78,25
2015-12-06 17:15;74,35
2015-12-06 17:30;80,15
2015-12-06 17:45;86,6
2015-12-06 18:00;90,95
2015-12-06 18:15;89,8
2015-12-06 18:30;89,3
2015-12-06 18:45;89,5
2015-12-06 19:00;89,8
2015-12-06 19:15;86,65
2015-12-06 19:30;84,9
2015-12-06 19:45;83,35
2015-12-06 20:00;82,45
2015-12-06 20:15;83,5
2015-12-06 20:30;81,05
2015-12-06 20:45;79,85
2015-12-06 21:00;80,2
2015-12-06 21:15;81,9
2015-12-06 21:30;82,2
2015-12-06 21:45;79,1
2015-12-06 22:00;78,5
2015-12-06 22:15;81
2015-12-06 22:30;81,9
2015-12-06 22:45;81,5
2015-12-06 23:00;80,85
2015-12-06 23:15;80,1
2015-12-06 23:30;73,55
2015-12-06 23:45;72,4

